Time,TemperatureF,DewpointF,PressureIn,WindDirection,WindDirectionDegrees,WindSpeedMPH,WindSpeedGustMPH,Humidity,HourlyPrecipIn,Conditions,Clouds,dailyrainin,SolarRadiationWatts/m^2,SoftwareType,DateUTC
2013-07-15 00:01:00,65.8,64.9,30.22,WSW,255,0.0,2.0,97,0.02,,,1.11,0.0,meteohub,2013-07-15 04:01:00,
2013-07-15 00:02:00,65.7,64.8,30.22,WSW,255,0.0,2.0,97,0.02,,,1.11,0.0,meteohub,2013-07-15 04:02:00,
2013-07-15 00:07:00,65.7,64.8,30.22,WSW,255,0.0,2.0,97,0.02,,,0.00,0.0,meteohub,2013-07-15 04:07:00,
2013-07-15 00:12:00,65.7,64.8,30.22,WSW,237,1.0,3.0,97,0.02,,,0.00,0.0,meteohub,2013-07-15 04:12:00,
2013-07-15 00:17:00,65.7,64.8,30.22,WSW,258,0.0,3.0,97,0.02,,,0.00,0.0,meteohub,2013-07-15 04:17:00,
2013-07-15 00:22:00,65.7,64.8,30.22,WSW,258,0.0,3.0,97,0.01,,,0.00,0.0,meteohub,2013-07-15 04:22:00,
2013-07-15 00:27:00,65.7,64.8,30.22,West,259,0.0,3.0,97,0.00,,,0.00,0.0,meteohub,2013-07-15 04:27:00,
2013-07-15 00:33:00,65.7,64.8,30.22,SSW,200,0.0,3.0,97,0.00,,,0.00,0.0,meteohub,2013-07-15 04:33:00,
2013-07-15 00:38:00,65.7,65.1,30.22,SSW,195,0.0,4.0,98,0.00,,,0.00,0.0,meteohub,2013-07-15 04:38:00,
2013-07-15 00:43:00,65.7,65.1,30.23,West,259,0.0,4.0,98,0.00,,,0.00,0.0,meteohub,2013-07-15 04:43:00,
2013-07-15 00:48:00,65.7,65.1,30.23,West,259,0.0,4.0,98,0.00,,,0.00,0.0,meteohub,2013-07-15 04:48:00,
2013-07-15 00:53:00,65.7,65.1,30.23,West,267,1.0,3.0,98,0.00,,,0.00,0.0,meteohub,2013-07-15 04:53:00,
2013-07-15 00:58:00,65.7,65.1,30.23,NNW,342,0.0,3.0,98,0.00,,,0.00,0.0,meteohub,2013-07-15 04:58:00,
2013-07-15 01:03:00,65.7,65.1,30.23,NNW,342,0.0,2.0,98,0.00,,,0.00,0.0,meteohub,2013-07-15 05:03:00,
2013-07-15 01:08:00,65.7,65.1,30.23,WNW,283,1.0,2.0,98,0.00,,,0.00,0.0,meteohub,2013-07-15 05:08:00,
2013-07-15 01:13:00,65.8,65.3,30.23,WNW,283,0.0,2.0,98,0.00,,,0.00,0.0,meteohub,2013-07-15 05:13:00,
2013-07-15 01:18:00,65.8,65.3,30.22,NW,304,1.0,2.0,98,0.00,,,0.00,0.0,meteohub,2013-07-15 05:18:00,
2013-07-15 01:23:00,65.8,65.3,30.22,WSW,237,1.0,3.0,98,0.01,,,0.01,0.0,meteohub,2013-07-15 05:23:00,
2013-07-15 01:28:00,65.8,65.3,30.23,SW,232,0.0,3.0,98,0.01,,,0.01,0.0,meteohub,2013-07-15 05:28:00,
2013-07-15 01:33:00,65.8,65.3,30.23,SW,223,1.0,3.0,98,0.01,,,0.01,0.0,meteohub,2013-07-15 05:33:00,
2013-07-15 01:38:00,65.8,65.3,30.22,NW,312,0.0,5.0,98,0.01,,,0.01,0.0,meteohub,2013-07-15 05:38:00,
2013-07-15 01:43:00,65.8,65.3,30.23,WSW,245,2.0,5.0,98,0.01,,,0.01,0.0,meteohub,2013-07-15 05:43:00,
2013-07-15 01:48:00,65.8,65.3,30.23,WSW,245,0.0,5.0,98,0.01,,,0.01,0.0,meteohub,2013-07-15 05:48:00,
2013-07-15 01:54:00,65.8,65.3,30.22,WNW,291,2.0,3.0,98,0.01,,,0.01,0.0,meteohub,2013-07-15 05:54:00,
2013-07-15 01:59:00,65.8,65.3,30.22,SW,229,0.0,3.0,98,0.01,,,0.01,0.0,meteohub,2013-07-15 05:59:00,
2013-07-15 02:04:00,65.8,65.3,30.22,West,280,1.0,3.0,98,0.01,,,0.01,0.0,meteohub,2013-07-15 06:04:00,
2013-07-15 02:09:00,65.8,65.3,30.22,West,273,2.0,4.0,98,0.01,,,0.01,0.0,meteohub,2013-07-15 06:09:00,
2013-07-15 02:14:00,65.8,65.3,30.22,WNW,283,0.0,4.0,98,0.01,,,0.01,0.0,meteohub,2013-07-15 06:14:00,
2013-07-15 02:19:00,65.7,65.1,30.23,SE,145,1.0,3.0,98,0.01,,,0.01,0.0,meteohub,2013-07-15 06:19:00,
2013-07-15 02:24:00,65.7,65.1,30.23,WNW,298,2.0,3.0,98,0.00,,,0.01,0.0,meteohub,2013-07-15 06:24:00,
2013-07-15 02:29:00,65.7,65.1,30.23,WNW,298,0.0,3.0,98,0.00,,,0.01,0.0,meteohub,2013-07-15 06:29:00,
2013-07-15 02:34:00,65.7,65.1,30.22,WNW,298,0.0,3.0,98,0.00,,,0.01,0.0,meteohub,2013-07-15 06:34:00,
2013-07-15 02:39:00,65.7,65.1,30.23,WNW,297,0.0,3.0,98,0.01,,,0.02,0.0,meteohub,2013-07-15 06:39:00,
2013-07-15 02:44:00,65.5,64.9,30.23,WNW,297,0.0,2.0,98,0.01,,,0.02,0.0,meteohub,2013-07-15 06:44:00,
2013-07-15 02:49:00,65.5,64.9,30.23,WNW,296,1.0,2.0,98,0.01,,,0.02,0.0,meteohub,2013-07-15 06:49:00,
2013-07-15 02:54:00,65.5,64.9,30.23,WNW,296,0.0,2.0,98,0.01,,,0.02,0.0,meteohub,2013-07-15 06:54:00,
2013-07-15 02:59:00,65.5,64.9,30.23,NW,306,0.0,2.0,98,0.01,,,0.02,0.0,meteohub,2013-07-15 06:59:00,
2013-07-15 03:05:00,65.3,64.8,30.23,NW,306,0.0,2.0,98,0.01,,,0.02,0.0,meteohub,2013-07-15 07:05:00,
2013-07-15 03:10:00,65.3,64.8,30.23,NW,308,0.0,2.0,98,0.01,,,0.02,0.0,meteohub,2013-07-15 07:10:00,
2013-07-15 03:15:00,65.3,64.8,30.22,West,262,0.0,2.0,98,0.01,,,0.02,0.0,meteohub,2013-07-15 07:15:00,
2013-07-15 03:20:00,65.3,64.8,30.22,West,262,0.0,2.0,98,0.01,,,0.02,0.0,meteohub,2013-07-15 07:20:00,
2013-07-15 03:25:00,65.3,64.8,30.22,SSW,201,0.0,2.0,98,0.01,,,0.02,0.0,meteohub,2013-07-15 07:25:00,
2013-07-15 03:30:00,65.3,64.8,30.22,WSW,247,0.0,2.0,98,0.00,,,0.02,0.0,meteohub,2013-07-15 07:30:00,
2013-07-15 03:35:00,65.3,64.8,30.22,SW,220,0.0,4.0,98,0.00,,,0.02,0.0,meteohub,2013-07-15 07:35:00,
2013-07-15 03:40:00,65.3,64.8,30.22,SSW,209,1.0,4.0,98,0.00,,,0.02,0.0,meteohub,2013-07-15 07:40:00,
2013-07-15 03:45:00,65.3,64.8,30.22,SSW,209,0.0,4.0,98,0.00,,,0.02,0.0,meteohub,2013-07-15 07:45:00,
2013-07-15 03:50:00,65.3,64.8,30.22,SSW,209,0.0,4.0,98,0.00,,,0.02,0.0,meteohub,2013-07-15 07:50:00,
2013-07-15 03:55:00,65.3,64.8,30.22,SW,233,0.0,4.0,98,0.00,,,0.02,0.0,meteohub,2013-07-15 07:55:00,
2013-07-15 04:00:00,65.3,64.8,30.22,SW,228,0.0,3.0,98,0.00,,,0.02,0.0,meteohub,2013-07-15 08:00:00,
2013-07-15 04:05:00,65.3,64.8,30.22,WNW,299,0.0,3.0,98,0.00,,,0.02,0.0,meteohub,2013-07-15 08:05:00,
2013-07-15 04:10:00,65.1,64.6,30.22,WNW,298,1.0,3.0,98,0.00,,,0.02,0.0,meteohub,2013-07-15 08:10:00,
2013-07-15 04:16:00,65.1,64.6,30.23,WNW,298,0.0,3.0,98,0.00,,,0.02,0.0,meteohub,2013-07-15 08:16:00,
2013-07-15 04:21:00,65.1,64.6,30.23,WNW,289,1.0,2.0,98,0.00,,,0.02,0.0,meteohub,2013-07-15 08:21:00,
2013-07-15 04:26:00,65.1,64.6,30.22,WNW,289,0.0,2.0,98,0.00,,,0.02,0.0,meteohub,2013-07-15 08:26:00,
2013-07-15 04:31:00,65.1,64.6,30.23,WNW,289,0.0,2.0,98,0.00,,,0.02,0.0,meteohub,2013-07-15 08:31:00,
2013-07-15 04:36:00,64.9,64.4,30.23,WNW,289,0.0,2.0,98,0.00,,,0.02,0.0,meteohub,2013-07-15 08:36:00,
2013-07-15 04:41:00,64.9,64.4,30.23,WNW,289,0.0,2.0,98,0.00,,,0.02,0.0,meteohub,2013-07-15 08:41:00,
2013-07-15 04:46:00,64.8,64.2,30.23,WNW,289,0.0,2.0,98,0.00,,,0.02,0.0,meteohub,2013-07-15 08:46:00,
2013-07-15 04:51:00,64.8,64.2,30.23,WNW,289,0.0,1.0,98,0.00,,,0.02,0.0,meteohub,2013-07-15 08:51:00,
2013-07-15 04:56:00,64.8,64.2,30.23,WNW,289,0.0,1.0,98,0.00,,,0.02,0.0,meteohub,2013-07-15 08:56:00,
2013-07-15 05:01:00,64.8,64.2,30.23,WNW,289,0.0,2.0,98,0.00,,,0.02,0.0,meteohub,2013-07-15 09:01:00,
2013-07-15 05:06:00,64.8,64.2,30.23,SSW,194,1.0,4.0,98,0.00,,,0.02,0.0,meteohub,2013-07-15 09:06:00,
2013-07-15 05:11:00,64.8,64.2,30.23,SSW,194,0.0,4.0,98,0.00,,,0.02,0.0,meteohub,2013-07-15 09:11:00,
2013-07-15 05:16:00,64.8,64.2,30.23,SSW,205,1.0,4.0,98,0.00,,,0.02,0.0,meteohub,2013-07-15 09:16:00,
2013-07-15 05:21:00,64.8,64.2,30.23,NW,312,0.0,3.0,98,0.00,,,0.02,0.0,meteohub,2013-07-15 09:21:00,
2013-07-15 05:26:00,64.8,64.2,30.23,NW,312,0.0,3.0,98,0.00,,,0.02,0.0,meteohub,2013-07-15 09:26:00,
2013-07-15 05:31:00,64.6,64.0,30.23,NW,312,0.0,3.0,98,0.00,,,0.02,0.0,meteohub,2013-07-15 09:31:00,
2013-07-15 05:36:00,64.6,64.0,30.23,NW,312,0.0,2.0,98,0.00,,,0.02,0.0,meteohub,2013-07-15 09:36:00,
2013-07-15 05:41:00,64.6,64.0,30.23,NW,312,0.0,2.0,98,0.00,,,0.02,0.0,meteohub,2013-07-15 09:41:00,
2013-07-15 05:46:00,64.6,64.0,30.23,WNW,302,0.0,1.0,98,0.00,,,0.02,0.0,meteohub,2013-07-15 09:46:00,
2013-07-15 05:51:00,64.6,64.0,30.23,WNW,302,0.0,3.0,98,0.00,,,0.02,0.0,meteohub,2013-07-15 09:51:00,
2013-07-15 05:56:00,64.4,63.9,30.23,WNW,300,0.0,3.0,98,0.00,,,0.02,0.0,meteohub,2013-07-15 09:56:00,
2013-07-15 06:01:00,64.4,63.9,30.24,WNW,298,0.0,3.0,98,0.00,,,0.02,0.0,meteohub,2013-07-15 10:01:00,
2013-07-15 06:06:00,64.4,63.9,30.24,WNW,298,0.0,3.0,98,0.00,,,0.02,0.0,meteohub,2013-07-15 10:06:00,
2013-07-15 06:12:00,64.4,63.9,30.24,WNW,298,0.0,3.0,98,0.00,,,0.02,0.0,meteohub,2013-07-15 10:12:00,
2013-07-15 06:17:00,64.2,63.7,30.24,WNW,298,0.0,2.0,98,0.00,,,0.02,0.0,meteohub,2013-07-15 10:17:00,
2013-07-15 06:22:00,64.2,63.7,30.24,WNW,298,0.0,2.0,98,0.00,,,0.02,0.0,meteohub,2013-07-15 10:22:00,
2013-07-15 06:27:00,64.2,63.7,30.24,WNW,298,0.0,1.0,98,0.00,,,0.02,0.0,meteohub,2013-07-15 10:27:00,
2013-07-15 06:32:00,64.2,63.7,30.24,SW,217,0.0,3.0,98,0.00,,,0.02,0.0,meteohub,2013-07-15 10:32:00,
2013-07-15 06:37:00,64.2,63.7,30.25,SW,217,0.0,3.0,98,0.00,,,0.02,0.0,meteohub,2013-07-15 10:37:00,
2013-07-15 06:42:00,64.2,63.7,30.25,SW,223,0.0,2.0,98,0.00,,,0.02,7.0,meteohub,2013-07-15 10:42:00,
2013-07-15 06:47:00,64.2,63.7,30.25,SW,223,0.0,2.0,98,0.00,,,0.02,16.0,meteohub,2013-07-15 10:47:00,
2013-07-15 06:52:00,64.2,63.7,30.25,West,263,0.0,2.0,98,0.00,,,0.02,14.0,meteohub,2013-07-15 10:52:00,
2013-07-15 06:57:00,64.2,63.7,30.25,West,259,0.0,3.0,98,0.00,,,0.02,16.0,meteohub,2013-07-15 10:57:00,
2013-07-15 07:02:00,64.2,63.7,30.25,West,259,0.0,3.0,98,0.00,,,0.02,11.0,meteohub,2013-07-15 11:02:00,
2013-07-15 07:07:00,64.2,63.7,30.26,West,259,0.0,2.0,98,0.00,,,0.02,11.0,meteohub,2013-07-15 11:07:00,
2013-07-15 07:12:00,64.2,63.7,30.25,West,259,1.0,2.0,98,0.00,,,0.02,12.0,meteohub,2013-07-15 11:12:00,
2013-07-15 07:17:00,64.2,63.7,30.26,West,259,0.0,2.0,98,0.00,,,0.02,11.0,meteohub,2013-07-15 11:17:00,
2013-07-15 07:22:00,64.2,63.7,30.26,West,259,0.0,2.0,98,0.00,,,0.02,11.0,meteohub,2013-07-15 11:22:00,
2013-07-15 07:27:00,64.2,63.7,30.26,West,259,0.0,2.0,98,0.00,,,0.02,16.0,meteohub,2013-07-15 11:27:00,
2013-07-15 07:32:00,64.4,63.9,30.26,West,259,0.0,1.0,98,0.00,,,0.02,12.0,meteohub,2013-07-15 11:32:00,
2013-07-15 07:37:00,64.4,63.9,30.26,West,259,0.0,0.0,98,0.00,,,0.02,11.0,meteohub,2013-07-15 11:37:00,
2013-07-15 07:42:00,64.4,63.9,30.26,West,259,0.0,0.0,98,0.00,,,0.02,11.0,meteohub,2013-07-15 11:42:00,
2013-07-15 07:47:00,64.4,63.9,30.26,West,259,0.0,0.0,98,0.00,,,0.02,14.0,meteohub,2013-07-15 11:47:00,
2013-07-15 07:52:00,64.4,63.9,30.26,West,259,0.0,0.0,98,0.00,,,0.02,16.0,meteohub,2013-07-15 11:52:00,
2013-07-15 07:57:00,64.4,63.9,30.27,West,259,0.0,0.0,98,0.00,,,0.02,11.0,meteohub,2013-07-15 11:57:00,
2013-07-15 08:02:00,64.4,63.9,30.26,West,259,0.0,0.0,98,0.00,,,0.02,11.0,meteohub,2013-07-15 12:02:00,
2013-07-15 08:07:00,64.4,63.9,30.26,West,259,0.0,1.0,98,0.01,,,0.03,19.0,meteohub,2013-07-15 12:07:00,
2013-07-15 08:12:00,64.4,63.9,30.27,West,259,0.0,2.0,98,0.01,,,0.03,28.0,meteohub,2013-07-15 12:12:00,
2013-07-15 08:17:00,64.4,63.9,30.27,West,259,0.0,2.0,98,0.02,,,0.04,39.0,meteohub,2013-07-15 12:17:00,
2013-07-15 08:22:00,64.4,63.9,30.27,West,259,0.0,2.0,98,0.02,,,0.04,46.0,meteohub,2013-07-15 12:22:00,
2013-07-15 08:27:00,64.6,64.0,30.27,West,259,0.0,1.0,98,0.02,,,0.04,67.0,meteohub,2013-07-15 12:27:00,
2013-07-15 08:32:00,64.6,64.0,30.26,West,259,2.0,2.0,98,0.02,,,0.04,51.0,meteohub,2013-07-15 12:32:00,
2013-07-15 08:37:00,64.8,64.2,30.27,West,259,0.0,2.0,98,0.02,,,0.04,51.0,meteohub,2013-07-15 12:37:00,
2013-07-15 08:42:00,64.8,64.4,30.27,West,259,0.0,2.0,99,0.02,,,0.04,53.0,meteohub,2013-07-15 12:42:00,
2013-07-15 08:47:00,64.9,64.6,30.27,WSW,238,0.0,2.0,99,0.02,,,0.04,42.0,meteohub,2013-07-15 12:47:00,
2013-07-15 08:52:00,64.9,64.6,30.27,WSW,238,0.0,2.0,99,0.02,,,0.04,69.0,meteohub,2013-07-15 12:52:00,
2013-07-15 08:57:00,64.9,64.6,30.27,WSW,238,2.0,2.0,99,0.02,,,0.04,42.0,meteohub,2013-07-15 12:57:00,
2013-07-15 09:02:00,65.1,64.6,30.27,WSW,238,0.0,3.0,98,0.02,,,0.04,86.0,meteohub,2013-07-15 13:02:00,
2013-07-15 09:07:00,65.3,64.8,30.27,WSW,238,0.0,3.0,98,0.01,,,0.04,148.0,meteohub,2013-07-15 13:07:00,
2013-07-15 09:12:00,65.5,65.1,30.27,WSW,238,0.0,3.0,99,0.00,,,0.04,105.0,meteohub,2013-07-15 13:12:00,
2013-07-15 09:17:00,65.7,65.3,30.27,West,271,6.0,6.0,99,0.00,,,0.04,156.0,meteohub,2013-07-15 13:17:00,
2013-07-15 09:22:00,65.8,65.5,30.27,NW,307,1.0,6.0,99,0.00,,,0.04,146.0,meteohub,2013-07-15 13:22:00,
2013-07-15 09:27:00,66.0,65.7,30.27,SW,231,0.0,6.0,99,0.00,,,0.04,149.0,meteohub,2013-07-15 13:27:00,
2013-07-15 09:32:00,66.4,66.0,30.27,SW,230,1.0,6.0,99,0.00,,,0.04,149.0,meteohub,2013-07-15 13:32:00,
2013-07-15 09:37:00,66.6,66.2,30.27,SSW,204,0.0,3.0,99,0.00,,,0.04,88.0,meteohub,2013-07-15 13:37:00,
2013-07-15 09:43:00,66.7,66.4,30.27,SSW,204,0.0,3.0,99,0.00,,,0.04,86.0,meteohub,2013-07-15 13:43:00,
2013-07-15 09:48:00,66.7,66.4,30.27,SSW,212,0.0,3.0,99,0.00,,,0.04,65.0,meteohub,2013-07-15 13:48:00,
2013-07-15 09:53:00,66.9,66.6,30.27,SW,219,0.0,3.0,99,0.00,,,0.04,183.0,meteohub,2013-07-15 13:53:00,
2013-07-15 09:58:00,67.1,66.7,30.27,SW,219,0.0,3.0,99,0.00,,,0.04,90.0,meteohub,2013-07-15 13:58:00,
2013-07-15 10:03:00,67.3,66.9,30.27,SW,219,0.0,3.0,99,0.00,,,0.04,234.0,meteohub,2013-07-15 14:03:00,
2013-07-15 10:08:00,67.5,67.1,30.27,South,191,0.0,2.0,99,0.00,,,0.04,204.0,meteohub,2013-07-15 14:08:00,
2013-07-15 10:13:00,67.6,67.1,30.27,SSW,203,1.0,3.0,98,0.00,,,0.04,186.0,meteohub,2013-07-15 14:13:00,
2013-07-15 10:18:00,68.2,67.8,30.27,WSW,237,3.0,3.0,99,0.00,,,0.04,640.0,meteohub,2013-07-15 14:18:00,
2013-07-15 10:23:00,68.2,67.6,30.27,SSE,157,0.0,4.0,98,0.00,,,0.04,98.0,meteohub,2013-07-15 14:23:00,
2013-07-15 10:28:00,68.5,68.0,30.27,SSW,202,0.0,4.0,98,0.00,,,0.04,680.0,meteohub,2013-07-15 14:28:00,
2013-07-15 10:33:00,68.7,67.8,30.27,SSW,204,0.0,4.0,97,0.00,,,0.04,577.0,meteohub,2013-07-15 14:33:00,
2013-07-15 10:39:00,69.1,68.2,30.28,WNW,290,0.0,4.0,97,0.00,,,0.04,135.0,meteohub,2013-07-15 14:39:00,
2013-07-15 10:44:00,69.3,68.0,30.28,SW,218,0.0,4.0,96,0.00,,,0.04,684.0,meteohub,2013-07-15 14:44:00,
2013-07-15 10:49:00,69.8,68.5,30.27,SSE,159,1.0,4.0,96,0.00,,,0.04,738.0,meteohub,2013-07-15 14:49:00,
2013-07-15 10:54:00,70.5,69.1,30.28,ESE,123,0.0,4.0,95,0.00,,,0.04,782.0,meteohub,2013-07-15 14:54:00,
2013-07-15 10:59:00,71.1,69.3,30.27,WSW,257,1.0,5.0,94,0.00,,,0.04,153.0,meteohub,2013-07-15 14:59:00,
2013-07-15 11:04:00,71.8,69.3,30.27,SSW,212,0.0,5.0,92,0.00,,,0.04,786.0,meteohub,2013-07-15 15:04:00,
2013-07-15 11:10:00,72.0,68.9,30.28,SE,144,0.0,5.0,90,0.00,,,0.04,160.0,meteohub,2013-07-15 15:10:00,
2013-07-15 11:15:00,72.1,69.1,30.28,WSW,258,0.0,6.0,90,0.00,,,0.04,253.0,meteohub,2013-07-15 15:15:00,
2013-07-15 11:20:00,72.7,70.0,30.28,WSW,244,0.0,6.0,91,0.00,,,0.04,476.0,meteohub,2013-07-15 15:20:00,
2013-07-15 11:25:00,72.7,69.3,30.28,West,265,3.0,4.0,89,0.00,,,0.04,269.0,meteohub,2013-07-15 15:25:00,
2013-07-15 11:30:00,72.7,68.2,30.28,SW,221,3.0,4.0,86,0.00,,,0.04,139.0,meteohub,2013-07-15 15:30:00,
2013-07-15 11:35:00,72.5,68.0,30.28,SSW,200,1.0,5.0,86,0.00,,,0.04,176.0,meteohub,2013-07-15 15:35:00,
2013-07-15 11:41:00,72.5,68.7,30.28,SSW,198,1.0,5.0,88,0.00,,,0.04,388.0,meteohub,2013-07-15 15:41:00,
2013-07-15 11:46:00,72.5,68.7,30.28,WSW,255,1.0,5.0,88,0.00,,,0.04,278.0,meteohub,2013-07-15 15:46:00,
2013-07-15 11:51:00,72.7,68.9,30.28,SSW,207,0.0,3.0,88,0.00,,,0.04,258.0,meteohub,2013-07-15 15:51:00,
2013-07-15 11:57:00,72.5,68.0,30.28,South,191,0.0,4.0,86,0.00,,,0.04,360.0,meteohub,2013-07-15 15:57:00,
2013-07-15 12:02:00,72.7,68.5,30.28,South,186,1.0,4.0,87,0.00,,,0.04,158.0,meteohub,2013-07-15 16:02:00,
2013-07-15 12:07:00,72.7,68.9,30.28,South,186,0.0,4.0,88,0.00,,,0.04,107.0,meteohub,2013-07-15 16:07:00,
2013-07-15 12:12:00,72.7,68.5,30.28,NE,43,0.0,4.0,87,0.00,,,0.04,227.0,meteohub,2013-07-15 16:12:00,
2013-07-15 12:17:00,73.0,69.6,30.28,South,184,4.0,4.0,89,0.00,,,0.04,1009.0,meteohub,2013-07-15 16:17:00,
2013-07-15 12:22:00,73.6,69.4,30.28,WSW,257,2.0,8.0,87,0.00,,,0.04,1034.0,meteohub,2013-07-15 16:22:00,
2013-07-15 12:27:00,73.9,69.4,30.28,WSW,257,2.0,8.0,86,0.00,,,0.04,1030.0,meteohub,2013-07-15 16:27:00,
2013-07-15 12:32:00,74.1,68.5,30.28,SSW,201,3.0,8.0,83,0.00,,,0.04,193.0,meteohub,2013-07-15 16:32:00,
2013-07-15 12:37:00,73.9,68.7,30.28,SW,234,1.0,4.0,84,0.00,,,0.04,288.0,meteohub,2013-07-15 16:37:00,
2013-07-15 12:42:00,73.9,69.1,30.27,South,173,0.0,4.0,85,0.00,,,0.04,204.0,meteohub,2013-07-15 16:42:00,
2013-07-15 12:47:00,73.8,69.3,30.28,WSW,250,2.0,4.0,86,0.00,,,0.04,1018.0,meteohub,2013-07-15 16:47:00,
2013-07-15 12:52:00,74.5,69.3,30.27,SSW,200,3.0,4.0,84,0.00,,,0.04,1011.0,meteohub,2013-07-15 16:52:00,
2013-07-15 12:58:00,75.0,70.2,30.27,South,183,0.0,4.0,85,0.00,,,0.04,1042.0,meteohub,2013-07-15 16:58:00,
2013-07-15 13:03:00,75.6,69.6,30.27,SSW,197,2.0,4.0,82,0.00,,,0.04,554.0,meteohub,2013-07-15 17:03:00,
2013-07-15 13:08:00,76.3,68.9,30.27,South,173,1.0,4.0,78,0.00,,,0.04,1109.0,meteohub,2013-07-15 17:08:00,
2013-07-15 13:13:00,76.5,68.7,30.27,South,188,2.0,4.0,77,0.00,,,0.04,396.0,meteohub,2013-07-15 17:13:00,
2013-07-15 13:19:00,76.6,69.6,30.27,SE,135,0.0,4.0,79,0.00,,,0.04,452.0,meteohub,2013-07-15 17:19:00,
2013-07-15 13:24:00,76.8,70.2,30.27,SSE,151,3.0,4.0,80,0.00,,,0.04,190.0,meteohub,2013-07-15 17:24:00,
2013-07-15 13:29:00,76.5,68.7,30.27,West,263,0.0,4.0,77,0.00,,,0.04,292.0,meteohub,2013-07-15 17:29:00,
2013-07-15 13:36:00,76.5,69.8,30.26,SW,224,1.0,4.0,80,0.00,,,0.04,323.0,meteohub,2013-07-15 17:36:00,
2013-07-15 13:41:00,76.5,70.5,30.26,WSW,246,1.0,5.0,82,0.00,,,0.04,1081.0,meteohub,2013-07-15 17:41:00,
2013-07-15 13:46:00,76.6,69.3,30.25,SE,144,0.0,5.0,78,0.00,,,0.04,926.0,meteohub,2013-07-15 17:46:00,
2013-07-15 13:51:00,76.8,70.5,30.25,West,261,3.0,5.0,81,0.00,,,0.04,898.0,meteohub,2013-07-15 17:51:00,
2013-07-15 13:56:00,77.2,70.9,30.25,ESE,117,1.0,5.0,81,0.00,,,0.04,738.0,meteohub,2013-07-15 17:56:00,
2013-07-15 14:02:00,77.4,70.0,30.25,SW,230,0.0,5.0,78,0.00,,,0.04,207.0,meteohub,2013-07-15 18:02:00,
2013-07-15 14:07:00,77.4,69.3,30.25,South,183,5.0,6.0,76,0.00,,,0.04,969.0,meteohub,2013-07-15 18:07:00,
2013-07-15 14:12:00,77.7,70.3,30.25,ESE,120,2.0,6.0,78,0.00,,,0.04,1011.0,meteohub,2013-07-15 18:12:00,
2013-07-15 14:17:00,78.3,70.9,30.25,SSE,166,2.0,5.0,78,0.00,,,0.04,1153.0,meteohub,2013-07-15 18:17:00,
2013-07-15 14:23:00,78.4,69.8,30.25,South,186,1.0,5.0,75,0.00,,,0.04,225.0,meteohub,2013-07-15 18:23:00,
2013-07-15 14:28:00,78.4,70.7,30.25,South,188,2.0,5.0,77,0.00,,,0.04,309.0,meteohub,2013-07-15 18:28:00,
2013-07-15 14:33:00,78.3,70.0,30.24,WSW,250,2.0,5.0,76,0.00,,,0.04,461.0,meteohub,2013-07-15 18:33:00,
2013-07-15 14:38:00,78.1,70.3,30.24,SW,236,3.0,6.0,77,0.00,,,0.04,953.0,meteohub,2013-07-15 18:38:00,
2013-07-15 14:43:00,77.7,68.4,30.24,SSW,194,1.0,9.0,73,0.00,,,0.04,211.0,meteohub,2013-07-15 18:43:00,
2013-07-15 14:48:00,77.7,70.7,30.24,South,178,2.0,9.0,79,0.00,,,0.04,954.0,meteohub,2013-07-15 18:48:00,
2013-07-15 14:54:00,77.9,70.9,30.24,West,271,0.0,9.0,79,0.00,,,0.04,570.0,meteohub,2013-07-15 18:54:00,
2013-07-15 14:59:00,78.3,69.3,30.24,SW,228,2.0,5.0,74,0.00,,,0.04,740.0,meteohub,2013-07-15 18:59:00,
2013-07-15 15:04:00,78.6,70.9,30.24,West,277,2.0,5.0,77,0.00,,,0.04,995.0,meteohub,2013-07-15 19:04:00,
2013-07-15 15:09:00,78.8,70.5,30.24,WSW,258,0.0,6.0,76,0.00,,,0.04,216.0,meteohub,2013-07-15 19:09:00,
2013-07-15 15:14:00,79.2,70.5,30.24,SSW,193,2.0,6.0,75,0.00,,,0.04,714.0,meteohub,2013-07-15 19:14:00,
2013-07-15 15:20:00,79.2,68.5,30.23,SSW,194,1.0,6.0,70,0.00,,,0.04,747.0,meteohub,2013-07-15 19:20:00,
2013-07-15 15:25:00,79.3,69.4,30.23,SSW,205,2.0,8.0,72,0.00,,,0.04,881.0,meteohub,2013-07-15 19:25:00,
2013-07-15 15:30:00,79.5,71.6,30.23,South,172,1.0,8.0,77,0.00,,,0.04,977.0,meteohub,2013-07-15 19:30:00,
2013-07-15 15:35:00,79.9,70.9,30.23,SSW,198,2.0,8.0,74,0.00,,,0.04,243.0,meteohub,2013-07-15 19:35:00,
2013-07-15 15:40:00,79.3,68.7,30.23,ESE,111,0.0,7.0,70,0.00,,,0.04,153.0,meteohub,2013-07-15 19:40:00,
2013-07-15 15:45:00,78.8,68.5,30.23,SW,222,2.0,7.0,71,0.00,,,0.04,192.0,meteohub,2013-07-15 19:45:00,
2013-07-15 15:50:00,78.4,69.8,30.22,WSW,248,2.0,6.0,75,0.00,,,0.04,865.0,meteohub,2013-07-15 19:50:00,
2013-07-15 15:56:00,78.6,70.3,30.22,WSW,256,2.0,4.0,76,0.00,,,0.04,861.0,meteohub,2013-07-15 19:56:00,
2013-07-15 16:01:00,79.2,70.9,30.22,SW,230,2.0,5.0,76,0.00,,,0.04,1002.0,meteohub,2013-07-15 20:01:00,
2013-07-15 16:06:00,79.2,69.3,30.22,West,276,4.0,5.0,72,0.00,,,0.04,320.0,meteohub,2013-07-15 20:06:00,
2013-07-15 16:11:00,79.0,70.0,30.22,SW,217,3.0,5.0,74,0.00,,,0.04,847.0,meteohub,2013-07-15 20:11:00,
2013-07-15 16:16:00,78.8,69.1,30.22,WSW,247,1.0,4.0,72,0.00,,,0.04,816.0,meteohub,2013-07-15 20:16:00,
2013-07-15 16:21:00,79.0,70.7,30.21,West,265,0.0,4.0,76,0.00,,,0.04,854.0,meteohub,2013-07-15 20:21:00,
2013-07-15 16:27:00,79.2,69.3,30.22,SW,232,1.0,4.0,72,0.00,,,0.04,360.0,meteohub,2013-07-15 20:27:00,
2013-07-15 16:32:00,79.2,70.2,30.21,SSW,199,3.0,4.0,74,0.00,,,0.04,181.0,meteohub,2013-07-15 20:32:00,
2013-07-15 16:37:00,79.2,68.9,30.21,West,265,2.0,4.0,71,0.00,,,0.04,814.0,meteohub,2013-07-15 20:37:00,
2013-07-15 16:42:00,79.2,71.2,30.21,SSE,165,2.0,4.0,77,0.00,,,0.04,745.0,meteohub,2013-07-15 20:42:00,
2013-07-15 16:47:00,79.2,69.8,30.21,WSW,255,1.0,4.0,73,0.00,,,0.04,606.0,meteohub,2013-07-15 20:47:00,
2013-07-15 16:52:00,79.5,70.5,30.20,WSW,255,0.0,5.0,74,0.00,,,0.04,800.0,meteohub,2013-07-15 20:52:00,
2013-07-15 16:57:00,79.5,71.6,30.20,SSW,213,3.0,5.0,77,0.00,,,0.04,181.0,meteohub,2013-07-15 20:57:00,
2013-07-15 17:02:00,79.3,69.1,30.20,SE,136,0.0,5.0,71,0.00,,,0.04,135.0,meteohub,2013-07-15 21:02:00,
2013-07-15 17:08:00,79.0,69.6,30.21,West,259,2.0,4.0,73,0.00,,,0.04,679.0,meteohub,2013-07-15 21:08:00,
2013-07-15 17:13:00,79.0,70.3,30.21,SW,219,0.0,5.0,75,0.00,,,0.04,686.0,meteohub,2013-07-15 21:13:00,
2013-07-15 17:18:00,79.2,68.9,30.21,NNE,16,0.0,6.0,71,0.00,,,0.04,580.0,meteohub,2013-07-15 21:18:00,
2013-07-15 17:23:00,79.3,69.4,30.21,NW,317,0.0,6.0,72,0.00,,,0.04,643.0,meteohub,2013-07-15 21:23:00,
2013-07-15 17:29:00,79.3,70.3,30.21,SSW,209,2.0,6.0,74,0.00,,,0.04,239.0,meteohub,2013-07-15 21:29:00,
2013-07-15 17:34:00,79.3,69.1,30.21,South,186,0.0,4.0,71,0.00,,,0.04,638.0,meteohub,2013-07-15 21:34:00,
2013-07-15 17:39:00,79.5,71.6,30.21,East,96,0.0,8.0,77,0.00,,,0.04,615.0,meteohub,2013-07-15 21:39:00,
2013-07-15 17:44:00,79.3,70.0,30.21,SSE,167,3.0,8.0,73,0.00,,,0.04,218.0,meteohub,2013-07-15 21:44:00,
2013-07-15 17:49:00,79.2,68.2,30.21,WNW,285,0.0,4.0,69,0.00,,,0.04,234.0,meteohub,2013-07-15 21:49:00,
2013-07-15 17:54:00,79.0,68.7,30.21,SE,143,2.0,4.0,71,0.00,,,0.04,239.0,meteohub,2013-07-15 21:54:00,
2013-07-15 17:59:00,78.8,69.4,30.21,West,278,0.0,5.0,73,0.00,,,0.04,258.0,meteohub,2013-07-15 21:59:00,
2013-07-15 18:04:00,78.6,70.3,30.21,SSW,203,0.0,5.0,76,0.00,,,0.04,192.0,meteohub,2013-07-15 22:04:00,
2013-07-15 18:09:00,78.4,69.8,30.20,SSW,203,3.0,5.0,75,0.00,,,0.04,128.0,meteohub,2013-07-15 22:09:00,
2013-07-15 18:14:00,78.1,69.4,30.21,SSW,194,0.0,4.0,75,0.00,,,0.04,84.0,meteohub,2013-07-15 22:14:00,
2013-07-15 18:20:00,77.7,69.1,30.21,SW,232,0.0,3.0,75,0.00,,,0.04,111.0,meteohub,2013-07-15 22:20:00,
2013-07-15 18:25:00,77.4,69.6,30.20,SW,232,0.0,4.0,77,0.00,,,0.04,118.0,meteohub,2013-07-15 22:25:00,
2013-07-15 18:30:00,77.0,68.9,30.20,SW,232,0.0,4.0,76,0.00,,,0.04,118.0,meteohub,2013-07-15 22:30:00,
2013-07-15 18:35:00,76.6,69.6,30.21,SW,232,0.0,4.0,79,0.00,,,0.04,93.0,meteohub,2013-07-15 22:35:00,
2013-07-15 18:40:00,76.3,68.5,30.20,SSW,194,0.0,2.0,77,0.00,,,0.04,83.0,meteohub,2013-07-15 22:40:00,
2013-07-15 18:45:00,75.9,69.6,30.20,SSW,194,0.0,4.0,81,0.00,,,0.04,104.0,meteohub,2013-07-15 22:45:00,
2013-07-15 18:50:00,75.7,69.8,30.20,SSW,194,0.0,4.0,82,0.00,,,0.04,83.0,meteohub,2013-07-15 22:50:00,
2013-07-15 18:55:00,75.4,69.1,30.21,SSW,194,0.0,1.0,81,0.00,,,0.04,67.0,meteohub,2013-07-15 22:55:00,
2013-07-15 19:01:00,75.2,69.3,30.21,SSW,194,0.0,1.0,82,0.00,,,0.04,56.0,meteohub,2013-07-15 23:01:00,
2013-07-15 19:06:00,75.0,69.1,30.21,SSW,194,0.0,1.0,82,0.00,,,0.04,42.0,meteohub,2013-07-15 23:06:00,
2013-07-15 19:11:00,74.7,69.1,30.22,SSW,194,0.0,1.0,83,0.00,,,0.04,46.0,meteohub,2013-07-15 23:11:00,
2013-07-15 19:16:00,74.5,68.5,30.21,SSW,194,0.0,1.0,82,0.00,,,0.04,33.0,meteohub,2013-07-15 23:16:00,
2013-07-15 19:21:00,74.1,68.5,30.21,SSW,194,0.0,1.0,83,0.00,,,0.04,35.0,meteohub,2013-07-15 23:21:00,
2013-07-15 19:26:00,73.9,68.4,30.21,SSW,194,0.0,1.0,83,0.00,,,0.04,33.0,meteohub,2013-07-15 23:26:00,
2013-07-15 19:31:00,73.8,68.4,30.21,SSW,194,0.0,0.0,83,0.00,,,0.04,35.0,meteohub,2013-07-15 23:31:00,
2013-07-15 19:36:00,73.6,68.4,30.21,SSW,194,0.0,1.0,84,0.00,,,0.04,33.0,meteohub,2013-07-15 23:36:00,
2013-07-15 19:41:00,73.2,68.2,30.21,SSW,194,0.0,1.0,84,0.00,,,0.04,28.0,meteohub,2013-07-15 23:41:00,
2013-07-15 19:46:00,73.0,68.0,30.21,SSW,194,0.0,1.0,84,0.00,,,0.04,30.0,meteohub,2013-07-15 23:46:00,
2013-07-15 19:51:00,72.9,68.0,30.21,SSW,194,0.0,1.0,85,0.00,,,0.04,25.0,meteohub,2013-07-15 23:51:00,
2013-07-15 19:57:00,72.7,67.8,30.21,SSW,194,0.0,1.0,85,0.00,,,0.04,23.0,meteohub,2013-07-15 23:57:00,
2013-07-15 20:02:00,72.5,67.8,30.21,SSW,194,0.0,0.0,85,0.00,,,0.04,19.0,meteohub,2013-07-16 00:02:00,
2013-07-15 20:07:00,72.3,67.6,30.21,SSW,194,0.0,0.0,85,0.00,,,0.04,18.0,meteohub,2013-07-16 00:07:00,
2013-07-15 20:12:00,72.1,67.5,30.21,SSW,194,0.0,0.0,85,0.00,,,0.04,18.0,meteohub,2013-07-16 00:12:00,
2013-07-15 20:17:00,72.0,67.5,30.21,SSW,194,0.0,1.0,86,0.00,,,0.04,18.0,meteohub,2013-07-16 00:17:00,
2013-07-15 20:22:00,72.0,67.5,30.21,SSW,194,0.0,1.0,86,0.00,,,0.04,21.0,meteohub,2013-07-16 00:22:00,
2013-07-15 20:27:00,71.8,67.3,30.21,SSW,194,0.0,1.0,86,0.00,,,0.04,12.0,meteohub,2013-07-16 00:27:00,
2013-07-15 20:34:00,71.4,67.1,30.22,SSW,194,0.0,1.0,86,0.00,,,0.04,0.0,meteohub,2013-07-16 00:34:00,
2013-07-15 20:39:00,71.4,67.1,30.22,SSW,194,0.0,1.0,86,0.00,,,0.04,0.0,meteohub,2013-07-16 00:39:00,
2013-07-15 20:44:00,71.2,66.9,30.21,SSW,194,0.0,1.0,86,0.00,,,0.04,0.0,meteohub,2013-07-16 00:44:00,
2013-07-15 20:49:00,71.2,66.9,30.21,SSW,194,0.0,0.0,86,0.00,,,0.04,0.0,meteohub,2013-07-16 00:49:00,
2013-07-15 20:54:00,71.1,66.7,30.21,SSW,194,0.0,0.0,86,0.00,,,0.04,0.0,meteohub,2013-07-16 00:54:00,
2013-07-15 20:59:00,71.1,66.9,30.21,SSW,194,0.0,1.0,87,0.00,,,0.04,0.0,meteohub,2013-07-16 00:59:00,
2013-07-15 21:04:00,70.9,67.1,30.21,SSW,194,0.0,1.0,88,0.00,,,0.04,0.0,meteohub,2013-07-16 01:04:00,
2013-07-15 21:09:00,70.9,67.1,30.21,SSW,194,0.0,0.0,88,0.00,,,0.04,0.0,meteohub,2013-07-16 01:09:00,
2013-07-15 21:14:00,70.9,67.1,30.22,SSW,194,0.0,0.0,88,0.00,,,0.04,0.0,meteohub,2013-07-16 01:14:00,
2013-07-15 21:19:00,70.7,66.9,30.22,SSW,194,0.0,0.0,88,0.00,,,0.04,0.0,meteohub,2013-07-16 01:19:00,
2013-07-15 21:25:00,70.5,66.7,30.22,SSW,194,0.0,0.0,88,0.00,,,0.04,0.0,meteohub,2013-07-16 01:25:00,
2013-07-15 21:30:00,70.3,66.9,30.22,SSW,194,0.0,1.0,89,0.00,,,0.04,0.0,meteohub,2013-07-16 01:30:00,
2013-07-15 21:35:00,70.3,66.9,30.23,SSW,194,0.0,0.0,89,0.00,,,0.04,0.0,meteohub,2013-07-16 01:35:00,
2013-07-15 21:40:00,70.2,66.7,30.23,SSW,194,0.0,0.0,89,0.00,,,0.04,0.0,meteohub,2013-07-16 01:40:00,
2013-07-15 21:45:00,70.2,66.7,30.23,SSW,194,0.0,0.0,89,0.00,,,0.04,0.0,meteohub,2013-07-16 01:45:00,
2013-07-15 21:51:00,70.0,66.6,30.23,SSW,194,0.0,0.0,89,0.00,,,0.04,0.0,meteohub,2013-07-16 01:51:00,
2013-07-15 21:56:00,69.8,66.4,30.22,SSW,194,0.0,0.0,89,0.00,,,0.04,0.0,meteohub,2013-07-16 01:56:00,
2013-07-15 22:01:00,69.6,66.2,30.23,SSW,194,0.0,0.0,89,0.00,,,0.04,0.0,meteohub,2013-07-16 02:01:00,
2013-07-15 22:06:00,69.4,66.0,30.23,SSW,194,0.0,0.0,89,0.00,,,0.04,0.0,meteohub,2013-07-16 02:06:00,
2013-07-15 22:11:00,69.4,66.0,30.24,SSW,194,0.0,0.0,89,0.00,,,0.04,0.0,meteohub,2013-07-16 02:11:00,
2013-07-15 22:16:00,69.3,66.2,30.24,SSW,194,0.0,0.0,90,0.00,,,0.04,0.0,meteohub,2013-07-16 02:16:00,
2013-07-15 22:22:00,69.1,66.0,30.24,SSW,194,0.0,0.0,90,0.00,,,0.04,0.0,meteohub,2013-07-16 02:22:00,
2013-07-15 22:27:00,69.1,66.0,30.24,SSW,194,0.0,0.0,90,0.00,,,0.04,0.0,meteohub,2013-07-16 02:27:00,
2013-07-15 22:32:00,68.9,66.2,30.24,SSW,194,0.0,0.0,91,0.00,,,0.04,0.0,meteohub,2013-07-16 02:32:00,
2013-07-15 22:37:00,68.7,66.0,30.24,SSW,194,0.0,0.0,91,0.00,,,0.04,0.0,meteohub,2013-07-16 02:37:00,
2013-07-15 22:42:00,68.7,66.0,30.24,SSW,194,0.0,0.0,91,0.00,,,0.04,0.0,meteohub,2013-07-16 02:42:00,
2013-07-15 22:47:00,68.7,66.4,30.24,SSW,194,0.0,0.0,92,0.00,,,0.04,0.0,meteohub,2013-07-16 02:47:00,
2013-07-15 22:52:00,68.5,66.2,30.24,SSW,194,0.0,0.0,92,0.00,,,0.04,0.0,meteohub,2013-07-16 02:52:00,
2013-07-15 22:57:00,68.5,66.2,30.24,SSW,194,0.0,0.0,92,0.00,,,0.04,0.0,meteohub,2013-07-16 02:57:00,
2013-07-15 23:03:00,68.5,66.2,30.24,SSW,194,0.0,0.0,92,0.00,,,0.04,0.0,meteohub,2013-07-16 03:03:00,
2013-07-15 23:08:00,68.5,66.2,30.24,SSW,194,0.0,0.0,92,0.00,,,0.04,0.0,meteohub,2013-07-16 03:08:00,
2013-07-15 23:13:00,68.4,66.0,30.24,SSW,194,0.0,0.0,92,0.00,,,0.04,0.0,meteohub,2013-07-16 03:13:00,
2013-07-15 23:18:00,68.4,66.0,30.25,SSW,194,0.0,0.0,92,0.00,,,0.04,0.0,meteohub,2013-07-16 03:18:00,
2013-07-15 23:23:00,68.2,65.8,30.25,SSW,194,0.0,0.0,92,0.00,,,0.04,0.0,meteohub,2013-07-16 03:23:00,
2013-07-15 23:28:00,68.2,66.0,30.25,SSW,194,0.0,0.0,93,0.00,,,0.04,0.0,meteohub,2013-07-16 03:28:00,
2013-07-15 23:34:00,68.0,65.8,30.25,SSW,194,0.0,0.0,93,0.00,,,0.04,0.0,meteohub,2013-07-16 03:34:00,
2013-07-15 23:39:00,67.8,65.7,30.25,SSW,194,0.0,0.0,93,0.00,,,0.04,0.0,meteohub,2013-07-16 03:39:00,
2013-07-15 23:44:00,67.6,65.5,30.25,SSW,194,0.0,0.0,93,0.00,,,0.04,0.0,meteohub,2013-07-16 03:44:00,
2013-07-15 23:50:00,67.6,65.5,30.25,SSW,194,0.0,0.0,93,0.00,,,0.04,0.0,meteohub,2013-07-16 03:50:00,
2013-07-15 23:55:00,67.6,65.8,30.26,SSW,194,0.0,0.0,94,0.00,,,0.04,0.0,meteohub,2013-07-16 03:55:00,